Tracking 28790 objects as of 19-Apr-2024
HD Live streaming from Space Station
objects crossing your sky now

SL-8 R/B

Track SL-8 R/B now!
10-day predictions


NORAD ID: 13128
Int'l Code: 1982-030B
Perigee: 965.5 km
Apogee: 1,006.0 km
Inclination: 82.9 °
Period: 104.7 minutes
Semi major axis: 7356 km
RCS: 4.5308 m2 (large)
Launch date: April 8, 1982
Source: Commonwealth of Independent States (former USSR) (CIS)
Launch site: PLESETSK MISSILE AND SPACE COMPLEX (PKMTR)

Note: This is a ROCKET BODY
Your satellite tracking list
Your tracking list is empty




NASA's NSSDC Master Catalog

Two Line Element Set (TLE):
1 13128U 82030B   24110.58589104  .00000197  00000-0  18786-3 0  9996
2 13128  82.9274 345.3966 0027551 286.6197 139.0494 13.75855623109245
Source of the keplerian elements: AFSPC